Miscellaneous Local Product
Issued by NWS North Platte, NE

Home | Current Version | Previous Version | Graphics & Text | Print | Product List | Glossary On
Versions: 1 2 3 4 5 6 7 8 9 10 11 12 13 14 15 16 17 18 19 20 21 22 23 24 25 26 27 28 29 30 31 32 33 34 35 36 37 38 39 40 41 42 43 44 45 46 47 48 49 50
000
AXUS43 KLBF 240610
MISLBF


WESTERN AND NORTH CENTRAL NEBRASKA HOURLY WEATHER ROUNDUP
NATIONAL WEATHER SERVICE NORTH PLATTE NE
100 AM CDT SAT JUN 24 2017

NOTE: "FAIR" INDICATES FEW OR NO CLOUDS BELOW 12,000 FEET WITH NO
SIGNIFICANT WEATHER AND/OR OBSTRUCTIONS TO VISIBILITY.

NOTE: STATIONS NOT REPORTING VARIABLES SUCH AS SKY/WEATHER OR
PRESSURE ARE PROVIDED BY RAWS AND APRS NETWORKS AND ARE NOT UNDER
NATIONAL WEATHER SERVICE QUALITY CONTROL.

...OBSERVATIONS IN AND NEAR THE EASTERN PANHANDLE OF NEBRASKA...

CITY           SKY/WX    TMP DP  RH WIND       PRES   REMARKS
PINE RIDGE     CLEAR     43  36  76 SW3       30.26R
GORDON         FAIR      46  36  70 CALM      30.26R
CHADRON        CLEAR     45  37  73 SW6       30.27R
ALLIANCE       MOCLDY    48  39  71 VRB5      30.29R
SIDNEY         PTCLDY    48  34  58 N5        30.30R
CRESCENT LAKE    N/A     55  37  50 CALM        N/A
$$

...OBSERVATIONS IN NORTHERN NEBRASKA AND FAR SOUTHERN SOUTH DAKOTA...

CITY           SKY/WX    TMP DP  RH WIND       PRES   REMARKS
WINNER         FAIR      50  35  56 W6        30.18R
VALENTINE      CLEAR     50  31  48 NW8       30.22R
THEDFORD       CLEAR     50  36  58 W3        30.25R
AINSWORTH      CLEAR     50  37  60 W6        30.22R
O`NEILL        CLEAR     49  41  74 W5        30.18S
ORD            CLEAR     53  37  54 W6        30.19R
BROKEN BOW     CLEAR     50  40  68 N8        30.21R
VALENTINE NWR    N/A     48  36  64 NW3         N/A
HALSEY           N/A     52  35  52 CALM        N/A
BUTTE            N/A     52  35  52 W6          N/A
CHAMBERS         N/A     48  35  61 CALM        N/A
EWING            N/A     49  42  77 CALM        N/A
$$

...OBSERVATIONS IN SOUTHWEST NEBRASKA AND FAR NORTHEAST COLORADO...

CITY           SKY/WX    TMP DP  RH WIND       PRES   REMARKS
WRAY           FAIR      54  46  76 N9        30.27R
IMPERIAL       CLEAR     51  41  68 CALM      30.26R
OGALLALA       CLEAR     53  39  59 NE7       30.26S
NORTH PLATTE   CLEAR     50  40  68 CALM      30.24R
MCCOOK         CLEAR     59  44  57 CALM      30.23R
LEXINGTON      CLEAR     49  45  84 NW7       30.22R
STAPLETON        N/A     53  37  55 CALM        N/A
GOTHENBURG       N/A     58  41  53 CALM        N/A
CALLAWAY         N/A     55  40  58 N5          N/A
$$

...OBSERVATIONS IN CENTRAL LINCOLN COUNTY AREA...

CITY           SKY/WX    TMP DP  RH WIND       PRES   REMARKS
N.P. AIRPORT   CLEAR     50  40  68 CALM      30.24R
N.P. DOWNTOWN    N/A     56  40  56 CALM        N/A
N.P. SOUTHEAST   N/A     57  39  52 CALM        N/A
N.P. HILLCREST   N/A     56  38  50 NE5         N/A
$$

...SOME OBSERVATIONS FROM AROUND THE REGION...

CITY           SKY/WX    TMP DP  RH WIND       PRES   REMARKS
DENVER         PTCLDY    53  46  77 SW7       30.34S
LIMON          CLOUDY    49  41  74 N5        30.35R
ASPEN          CLOUDY    52  30  43 SW8       30.32S
LARAMIE        CLEAR     46  40  79 E9        30.37F
CASPER         PTCLDY    44  32  62 NE8       30.34S
CHEYENNE       MOCLDY    53  43  68 CALM      30.36S
SCOTTSBLUFF    PTCLDY    54  35  48 NE6       30.29R
GRAND ISLAND   CLEAR     57  43  59 N7        30.18R
OMAHA          CLEAR     60  47  61 CALM      30.12R
SIOUX FALLS    CLEAR     52  43  71 W8        30.10R
PIERRE         CLEAR     48  39  71 NW7       30.15R
RAPID CITY     CLEAR     45  29  53 NW8       30.24S
BISMARCK       MOCLDY    50  39  66 SW5       30.10F
KANSAS CITY    CLEAR     62  55  77 W6        30.11R
HILL CITY      CLEAR     58  49  72 NE7       30.22R
WICHITA        MOCLDY    68  55  63 CALM      30.13R
DODGE CITY     CLOUDY    65  55  70 W5        30.21R
OKLAHOMA CITY  MOCLDY    73  56  54 NE12      30.08R
DALLAS         TSTM      77  76  96 NE16      29.93R FOG
AMARILLO       CLOUDY    66  49  54 NE16      30.23R
$$




USA.gov is the U.S. government's official web portal to all federal, state and local government web resources and services.